SCP
0 0 0 0 0 0 -0 -0 -0 -0 -0 -0 -0 -0 -0 0 0 -0 -0 -0 -0 -0 -0 -0 -0 -0 -0 -0 -0 -0 -0 -0 -0 -0 0 0 -0 -0 -0 0 0 0 0
0 0 0 0 0 0 0 0 0 0 -0 -0 -0 -0 -0 0 0 0 0 0 0 0 0 0 -0 -0 -0 -0 -0 -0 -0 -0 -0 -0 0 0 0 -0 -0 -0 0 0 0
0 0 0 0 1 1 1 0 0 0 0 0 0 0 0 -0 0 0 0 0 0 0 0 0 -0 -0 -0 -0 -0 0 0 -0 -0 -0 0 0 0 -0 -0 -0 -0 -0 0
0 1 1 1 0 0 1 0 0 0 0 0 0 0 0 0 0 0 0 0 0 -0 0 0 -0 -0 -0 0 0 -0 -0 -0 0 0 0 0 -0 -0 -0 -0 -0 -0 -0
0 0 1 1 1 1 0 1 0 0 0 0 0 0 0 0 0 0 0 0 0 0 0 0 0 0 0 0 0 0 -0 0 0 0 0 0 0 -0 -0 -0 -0 -0 -0
0 0 0 0 1 1 1 1 0 0 0 0 0 0 0 0 0 0 0 0 0 0 0 0 0 0 0 0 0 0 0 0 0 0 0 0 0 0 -0 -0 -0 -0 -0
0 0 0 0 0 1 1 1 0 0 0 0 0 0 0 0 0 0 0 0 0 0 0 0 0 0 0 0 0 0 0 0 0 0 -0 0 0 0 0 -0 -0 -0 -0
0 0 0 0 1 0 1 1 1 0 0 0 0 0 0 0 0 0 0 0 0 0 0 0 0 0 0 0 0 0 0 0 0 0 0 0 0 0 0 -0 -0 -0 -0
1 1 0 1 1 1 1 1 1 1 1 1 0 0 0 0 0 0 0 0 0 0 0 0 0 0 0 0 0 0 0 0 0 0 0 0 0 0 0 0 -0 -0 -0
1 1 1 1 1 1 1 1 1 1 1 1 1 1 1 0 0 0 0 0 0 0 0 0 0 -0 0 0 0 0 0 0 0 0 0 0 0 0 0 0 0 -0 -0
1 1 1 0 0 1 1 1 1 1 1 1 1 1 1 1 1 0 0 0 0 0 0 0 0 0 0 0 0 0 0 0 0 0 0 0 0 0 0 0 0 0 -0
1 1 1 1 1 1 1 1 1 1 1 1 1 1 1 0 0 0 0 0 0 0 0 0 0 0 0 0 0 0 0 0 0 0 0 0 0 0 0 0 0 -0 -0
0 1 1 1 1 1 1 1 1 1 1 1 1 1 1 1 0 0 0 0 0 0 0 0 0 0 0 0 0 0 0 0 0 0 -0 -0 0 0 0 0 0 0 -0
0 0 0 1 1 1 2 1 1 1 1 1 1 1 1 1 0 0 0 0 0 0 0 0 0 0 0 0 0 0 0 0 0 0 0 0 0 0 0 0 0 0 0
0 0 0 0 0 1 2 2 2 1 1 1 1 1 1 1 0 0 0 0 0 0 0 0 0 0 0 0 0 0 0 0 0 0 0 0 0 0 0 0 0 0 0
0 0 0 0 0 0 1 2 2 2 1 1 1 1 1 1 0 0 0 0 0 0 0 0 0 0 0 0 0 0 0 0 0 0 0 0 0 0 0 0 0 0 0
0 0 0 0 0 0 0 0 2 2 2 2 1 1 1 1 0 0 0 0 0 0 0 0 0 0 0 0 0 0 0 0 0 0 0 0 0 0 0 0 0 0 0
0 0 0 0 0 0 0 0 0 0 2 2 1 1 1 1 0 0 0 0 0 0 0 0 0 0 0 0 0 0 0 0 0 0 0 0 0 0 0 0 0 0 0
0 0 0 0 0 0 0 0 0 0 0 1 1 1 1 1 0 0 0 0 0 0 0 0 0 0 0 0 0 0 0 0 0 0 0 0 0 0 0 0 0 0 0
0 0 0 0 0 0 0 0 0 0 0 0 1 1 1 1 0 0 0 0 0 0 0 0 0 0 0 0 0 0 0 0 0 0 0 0 0 0 0 0 0 0 0
0 0 0 0 0 0 0 0 0 0 0 0 0 1 1 1 0 0 0 0 0 0 0 0 0 0 0 0 0 0 0 0 0 0 0 0 0 0 0 0 0 0 0
0 0 0 0 0 0 0 0 0 0 0 0 0 1 1 1 1 1 0 0 0 0 0 0 0 0 0 0 0 0 0 0 0 0 0 0 0 0 0 0 0 0 0
0 0 0 0 0 0 0 0 0 0 0 0 0 0 1 1 1 1 0 0 0 0 0 0 0 0 0 0 0 0 0 0 0 0 0 0 0 0 0 0 0 0 0
0 0 0 0 0 0 0 0 0 0 0 0 0 0 0 1 1 1 1 0 0 0 0 0 0 0 0 0 0 0 0 0 0 0 0 0 0 0 0 0 0 0 0
0 0 0 0 0 0 0 0 0 0 0 0 0 0 1 1 1 1 0 0 0 0 0 0 0 0 0 0 0 0 0 0 0 0 0 0 0 0 0 0 0 0 0
0 0 0 0 0 0 0 0 0 0 0 0 1 1 0 0 0 0 0 0 0 0 0 0 0 0 0 0 0 0 0 0 0 0 0 0 0 0 0 0 0 0 0
Wind_Speed_500mb
28 35 41 45 49 51 50 47 45 41 35 29 27 31 34 35 34 33 32 28 26 26 27 27 24 21 18 17 17 18 16 14 17 19 24 32 33 28 28 25 24 28 30
26 34 42 44 47 48 48 46 46 41 35 30 31 34 37 36 35 34 33 32 30 29 28 27 26 24 24 23 22 21 20 20 22 24 25 30 31 28 25 26 27 31 29
21 35 43 44 47 47 46 45 46 41 36 33 34 39 38 35 35 32 30 29 31 29 31 27 28 36 35 29 23 21 22 25 22 23 23 25 26 24 30 26 31 31 24
13 27 41 43 46 45 44 43 44 41 38 35 35 40 37 34 33 32 29 28 28 27 30 27 35 35 29 25 20 16 23 29 31 26 20 21 22 30 28 35 32 23 21
17 20 38 40 43 44 43 42 42 41 38 35 34 39 36 32 30 31 30 30 24 24 29 35 34 30 21 16 16 14 25 28 31 29 25 22 28 33 38 30 24 19 16
17 20 28 36 42 44 44 43 40 40 37 34 33 39 37 31 28 28 31 33 25 23 24 25 24 21 15 13 15 26 32 28 25 26 25 18 27 31 27 23 20 16 9
19 17 19 28 41 43 45 43 40 40 37 36 38 37 37 32 29 29 31 38 29 20 15 12 11 14 14 13 19 33 39 28 28 22 14 14 13 15 16 16 17 8 6
17 17 18 26 37 43 45 45 42 41 40 39 38 37 36 33 33 32 35 38 29 19 14 11 9 13 21 15 17 37 40 33 31 23 14 18 14 12 12 16 14 7 4
21 25 24 25 33 39 44 46 44 43 43 42 39 38 38 35 35 36 39 39 27 19 17 13 11 29 23 20 26 44 37 34 23 16 9 9 17 12 15 20 16 15 12
31 29 32 29 31 39 44 44 45 45 45 44 43 42 40 37 36 39 41 41 27 22 18 15 25 32 32 29 28 41 35 28 22 17 16 16 24 22 25 28 24 24 26
36 35 35 33 27 39 44 48 47 47 46 45 45 45 43 41 39 41 44 42 31 22 21 21 31 35 32 29 26 27 30 28 25 18 16 16 28 31 31 33 33 34 15
45 45 42 37 32 28 42 46 48 49 50 50 50 50 48 44 42 44 46 43 32 28 25 26 35 39 37 30 31 31 29 26 27 22 15 16 30 33 36 40 40 28 15
46 47 46 44 42 37 35 43 49 51 49 51 51 51 49 46 46 47 49 45 37 34 31 34 40 47 43 34 35 34 32 26 22 21 15 15 26 38 41 39 30 23 14
51 49 51 49 48 46 45 45 44 48 53 54 54 54 52 51 51 52 53 47 41 36 33 39 43 53 49 38 36 37 34 31 26 22 22 21 22 24 26 28 27 22 20
50 51 56 54 56 52 52 54 53 51 52 49 52 57 58 57 56 56 54 50 43 35 33 40 44 57 54 44 39 38 39 36 28 27 23 30 38 27 22 25 22 26 27
54 52 49 52 58 61 62 61 60 59 58 57 53 56 62 63 61 60 58 52 45 37 32 37 48 60 55 51 39 37 36 37 35 32 28 25 29 33 39 32 33 29 27
62 66 63 58 56 56 63 67 67 63 64 63 60 58 59 66 66 64 62 58 49 41 35 38 49 56 53 51 40 37 35 31 36 30 26 25 32 37 34 40 41 21 29
28 42 58 68 68 67 64 70 70 70 68 70 67 64 62 64 66 70 69 63 55 47 43 46 56 61 55 51 41 41 37 34 34 31 27 18 24 27 27 33 24 26 25
22 31 39 51 64 70 70 72 75 75 75 71 70 69 66 66 67 71 74 68 65 57 51 53 65 62 60 50 47 43 43 40 35 31 28 22 25 25 26 30 30 25 14
17 24 33 40 50 61 73 77 75 77 81 77 76 70 71 69 69 73 75 71 72 62 60 65 69 64 59 56 51 47 48 47 43 38 32 27 24 22 30 33 32 32 23
18 20 25 36 39 44 51 69 78 77 80 87 83 76 68 75 72 73 78 77 79 71 69 69 73 69 65 66 59 48 40 36 45 39 39 34 29 29 30 34 33 34 23
19 14 21 24 28 32 37 46 59 69 75 86 90 91 81 78 76 73 70 81 81 75 75 79 79 78 73 72 71 64 48 43 46 46 43 41 34 33 36 35 36 36 35
38 31 25 22 32 38 42 48 59 68 75 75 79 81 82 84 87 81 72 72 85 83 82 76 81 86 89 80 82 56 35 27 54 55 52 47 42 40 41 43 43 39 41
56 37 28 24 29 33 37 40 46 60 77 86 84 77 74 81 86 80 81 78 79 85 82 82 86 88 96 88 86 73 54 39 40 36 62 60 56 52 41 46 48 44 46
66 61 49 31 20 23 30 27 44 54 68 74 80 83 83 84 79 75 77 83 85 85 82 88 90 91 95 93 98 91 67 47 38 35 42 65 67 60 50 44 47 49 50
67 66 63 55 49 21 9 11 39 38 64 70 76 82 86 87 79 73 73 78 82 84 83 84 87 90 96 96 77 70 89 75 52 48 37 39 53 55 59 52 50 55 54
Wind_Direction_500mb
173 175 177 171 168 166 166 164 164 162 159 160 158 160 162 168 174 177 176 174 169 158 151 148 151 153 145 141 143 144 141 132 135 135 132 129 120 124 127 128 119 114 112
168 178 179 176 170 168 168 167 167 165 161 160 156 154 151 151 157 161 161 161 159 155 150 149 142 138 132 126 126 127 131 133 131 129 134 137 141 140 135 131 126 122 120
179 174 181 179 175 173 171 168 169 169 165 161 158 157 152 150 151 153 152 153 151 150 151 154 148 139 126 112 113 116 123 126 127 130 141 140 137 137 137 136 133 125 112
194 183 183 182 180 178 175 173 173 172 168 164 160 161 159 155 155 158 158 152 157 169 164 165 155 143 130 121 114 124 127 130 126 128 135 144 144 143 142 137 128 120 108
171 181 189 186 185 183 180 179 177 177 174 169 166 166 166 162 161 161 160 161 154 146 167 162 159 157 153 143 135 147 159 136 134 128 121 130 141 140 137 133 123 108 97
184 176 180 193 189 187 184 183 183 182 181 179 173 171 172 170 170 168 166 162 151 140 142 155 168 186 201 202 185 171 174 159 153 138 137 144 121 130 130 127 116 113 102
194 182 188 200 196 191 188 188 186 187 187 185 183 179 178 179 178 177 173 164 161 155 157 171 204 222 208 178 174 177 167 163 156 147 156 167 172 157 143 135 133 138 113
217 196 206 201 206 196 194 193 193 191 193 192 189 188 187 187 183 178 179 173 167 176 189 203 216 183 150 147 171 169 171 156 159 177 211 235 220 194 182 153 158 177 146
211 215 205 211 201 208 202 199 198 197 197 198 196 193 192 193 192 187 184 183 183 199 204 205 183 155 154 134 153 159 162 159 170 172 187 187 177 182 190 180 178 154 148
207 217 207 208 209 210 211 205 203 204 203 202 199 198 197 196 196 194 190 189 194 194 200 196 161 157 154 137 154 160 171 168 165 167 188 177 178 171 157 158 164 157 142
204 215 215 211 217 220 214 213 209 209 208 207 206 204 202 199 199 197 194 198 203 203 198 190 170 167 160 156 172 180 166 169 171 184 202 193 181 164 158 158 155 144 122
214 216 219 220 222 214 215 215 216 213 210 210 210 209 207 205 200 194 194 203 210 208 200 193 176 170 166 172 175 177 171 178 166 173 190 190 158 166 159 155 148 136 155
219 218 226 227 235 223 216 219 221 221 219 215 214 213 212 208 201 199 201 206 211 212 206 196 185 180 173 175 178 177 184 185 184 178 205 192 147 150 155 161 176 182 182
230 222 226 228 230 233 227 223 223 221 223 223 218 217 215 211 207 205 208 211 215 216 215 204 192 186 179 179 186 186 188 196 183 184 196 216 200 184 174 181 195 201 207
244 233 227 229 229 233 234 232 225 221 220 223 227 226 221 217 215 212 211 212 216 217 217 209 203 189 184 186 191 203 196 196 196 204 196 209 208 214 212 202 230 234 231
242 242 242 239 238 240 239 236 235 229 224 223 225 229 229 224 221 218 216 214 213 217 222 216 203 190 189 189 196 201 197 201 214 205 205 204 218 221 239 220 230 234 228
240 239 242 249 254 245 240 240 238 235 232 230 227 228 230 229 226 224 221 215 214 216 218 211 197 187 186 183 195 203 190 195 192 201 209 227 223 219 212 220 228 228 197
242 242 242 241 239 238 242 237 241 239 236 234 234 232 230 228 230 227 223 218 213 215 210 204 194 186 185 183 189 204 197 190 195 203 207 211 197 206 209 201 213 195 204
237 233 235 235 233 235 236 239 241 239 238 236 235 233 232 230 229 229 226 222 215 210 206 200 191 191 184 189 196 201 208 205 200 202 206 209 210 216 203 199 200 190 199
222 218 217 222 232 234 232 232 233 235 238 238 234 232 232 232 230 229 228 227 217 211 202 193 190 192 194 191 198 200 206 213 209 213 212 223 222 220 204 206 200 203 208
245 237 225 216 219 227 232 231 232 234 235 239 239 235 230 229 228 228 228 226 223 215 204 200 194 194 193 200 198 194 203 208 212 218 219 224 225 221 213 208 220 221 228
346 303 270 251 232 225 230 227 231 232 241 243 244 241 236 230 227 224 227 226 223 215 206 203 200 195 196 202 192 190 184 194 208 212 218 224 221 222 215 215 216 225 231
358 352 322 293 261 247 244 245 239 238 241 245 242 238 234 229 228 227 227 228 222 218 215 213 210 207 200 198 202 185 168 196 198 205 213 220 225 226 224 221 221 228 229
23 8 345 328 287 268 252 256 256 250 246 244 240 233 229 223 221 224 225 226 224 219 217 216 212 215 208 200 197 201 200 198 187 202 215 221 225 230 241 225 220 225 229
28 28 23 11 329 272 256 254 251 250 250 248 243 229 223 222 220 223 224 224 220 220 225 220 218 218 219 208 199 200 207 209 211 202 208 219 223 227 229 231 222 228 231
21 25 23 23 23 9 322 266 239 240 243 241 239 228 220 219 220 222 223 220 220 221 223 220 225 223 218 222 216 218 213 208 212 215 217 224 226 231 232 230 230 228 234
Wind_Speed_850mb
28 35 41 45 49 51 50 47 45 41 35 29 27 31 34 35 34 33 32 28 26 26 27 27 24 21 18 17 17 18 16 14 17 19 24 32 33 28 28 25 24 28 30
26 34 42 44 47 48 48 46 46 41 35 30 31 34 37 36 35 34 33 32 30 29 28 27 26 24 24 23 22 21 20 20 22 24 25 30 31 28 25 26 27 31 29
21 35 43 44 47 47 46 45 46 41 36 33 34 39 38 35 35 32 30 29 31 29 31 27 28 36 35 29 23 21 22 25 22 23 23 25 26 24 30 26 31 31 24
13 27 41 43 46 45 44 43 44 41 38 35 35 40 37 34 33 32 29 28 28 27 30 27 35 35 29 25 20 16 23 29 31 26 20 21 22 30 28 35 32 23 21
17 20 38 40 43 44 43 42 42 41 38 35 34 39 36 32 30 31 30 30 24 24 29 35 34 30 21 16 16 14 25 28 31 29 25 22 28 33 38 30 24 19 16
17 20 28 36 42 44 44 43 40 40 37 34 33 39 37 31 28 28 31 33 25 23 24 25 24 21 15 13 15 26 32 28 25 26 25 18 27 31 27 23 20 16 9
19 17 19 28 41 43 45 43 40 40 37 36 38 37 37 32 29 29 31 38 29 20 15 12 11 14 14 13 19 33 39 28 28 22 14 14 13 15 16 16 17 8 6
17 17 18 26 37 43 45 45 42 41 40 39 38 37 36 33 33 32 35 38 29 19 14 11 9 13 21 15 17 37 40 33 31 23 14 18 14 12 12 16 14 7 4
21 25 24 25 33 39 44 46 44 43 43 42 39 38 38 35 35 36 39 39 27 19 17 13 11 29 23 20 26 44 37 34 23 16 9 9 17 12 15 20 16 15 12
31 29 32 29 31 39 44 44 45 45 45 44 43 42 40 37 36 39 41 41 27 22 18 15 25 32 32 29 28 41 35 28 22 17 16 16 24 22 25 28 24 24 26
36 35 35 33 27 39 44 48 47 47 46 45 45 45 43 41 39 41 44 42 31 22 21 21 31 35 32 29 26 27 30 28 25 18 16 16 28 31 31 33 33 34 15
45 45 42 37 32 28 42 46 48 49 50 50 50 50 48 44 42 44 46 43 32 28 25 26 35 39 37 30 31 31 29 26 27 22 15 16 30 33 36 40 40 28 15
46 47 46 44 42 37 35 43 49 51 49 51 51 51 49 46 46 47 49 45 37 34 31 34 40 47 43 34 35 34 32 26 22 21 15 15 26 38 41 39 30 23 14
51 49 51 49 48 46 45 45 44 48 53 54 54 54 52 51 51 52 53 47 41 36 33 39 43 53 49 38 36 37 34 31 26 22 22 21 22 24 26 28 27 22 20
50 51 56 54 56 52 52 54 53 51 52 49 52 57 58 57 56 56 54 50 43 35 33 40 44 57 54 44 39 38 39 36 28 27 23 30 38 27 22 25 22 26 27
54 52 49 52 58 61 62 61 60 59 58 57 53 56 62 63 61 60 58 52 45 37 32 37 48 60 55 51 39 37 36 37 35 32 28 25 29 33 39 32 33 29 27
62 66 63 58 56 56 63 67 67 63 64 63 60 58 59 66 66 64 62 58 49 41 35 38 49 56 53 51 40 37 35 31 36 30 26 25 32 37 34 40 41 21 29
28 42 58 68 68 67 64 70 70 70 68 70 67 64 62 64 66 70 69 63 55 47 43 46 56 61 55 51 41 41 37 34 34 31 27 18 24 27 27 33 24 26 25
22 31 39 51 64 70 70 72 75 75 75 71 70 69 66 66 67 71 74 68 65 57 51 53 65 62 60 50 47 43 43 40 35 31 28 22 25 25 26 30 30 25 14
17 24 33 40 50 61 73 77 75 77 81 77 76 70 71 69 69 73 75 71 72 62 60 65 69 64 59 56 51 47 48 47 43 38 32 27 24 22 30 33 32 32 23
18 20 25 36 39 44 51 69 78 77 80 87 83 76 68 75 72 73 78 77 79 71 69 69 73 69 65 66 59 48 40 36 45 39 39 34 29 29 30 34 33 34 23
19 14 21 24 28 32 37 46 59 69 75 86 90 91 81 78 76 73 70 81 81 75 75 79 79 78 73 72 71 64 48 43 46 46 43 41 34 33 36 35 36 36 35
38 31 25 22 32 38 42 48 59 68 75 75 79 81 82 84 87 81 72 72 85 83 82 76 81 86 89 80 82 56 35 27 54 55 52 47 42 40 41 43 43 39 41
56 37 28 24 29 33 37 40 46 60 77 86 84 77 74 81 86 80 81 78 79 85 82 82 86 88 96 88 86 73 54 39 40 36 62 60 56 52 41 46 48 44 46
66 61 49 31 20 23 30 27 44 54 68 74 80 83 83 84 79 75 77 83 85 85 82 88 90 91 95 93 98 91 67 47 38 35 42 65 67 60 50 44 47 49 50
67 66 63 55 49 21 9 11 39 38 64 70 76 82 86 87 79 73 73 78 82 84 83 84 87 90 96 96 77 70 89 75 52 48 37 39 53 55 59 52 50 55 54
Wind_Direction_850mb
173 175 177 171 168 166 166 164 164 162 159 160 158 160 162 168 174 177 176 174 169 158 151 148 151 153 145 141 143 144 141 132 135 135 132 129 120 124 127 128 119 114 112
168 178 179 176 170 168 168 167 167 165 161 160 156 154 151 151 157 161 161 161 159 155 150 149 142 138 132 126 126 127 131 133 131 129 134 137 141 140 135 131 126 122 120
179 174 181 179 175 173 171 168 169 169 165 161 158 157 152 150 151 153 152 153 151 150 151 154 148 139 126 112 113 116 123 126 127 130 141 140 137 137 137 136 133 125 112
194 183 183 182 180 178 175 173 173 172 168 164 160 161 159 155 155 158 158 152 157 169 164 165 155 143 130 121 114 124 127 130 126 128 135 144 144 143 142 137 128 120 108
171 181 189 186 185 183 180 179 177 177 174 169 166 166 166 162 161 161 160 161 154 146 167 162 159 157 153 143 135 147 159 136 134 128 121 130 141 140 137 133 123 108 97
184 176 180 193 189 187 184 183 183 182 181 179 173 171 172 170 170 168 166 162 151 140 142 155 168 186 201 202 185 171 174 159 153 138 137 144 121 130 130 127 116 113 102
194 182 188 200 196 191 188 188 186 187 187 185 183 179 178 179 178 177 173 164 161 155 157 171 204 222 208 178 174 177 167 163 156 147 156 167 172 157 143 135 133 138 113
217 196 206 201 206 196 194 193 193 191 193 192 189 188 187 187 183 178 179 173 167 176 189 203 216 183 150 147 171 169 171 156 159 177 211 235 220 194 182 153 158 177 146
211 215 205 211 201 208 202 199 198 197 197 198 196 193 192 193 192 187 184 183 183 199 204 205 183 155 154 134 153 159 162 159 170 172 187 187 177 182 190 180 178 154 148
207 217 207 208 209 210 211 205 203 204 203 202 199 198 197 196 196 194 190 189 194 194 200 196 161 157 154 137 154 160 171 168 165 167 188 177 178 171 157 158 164 157 142
204 215 215 211 217 220 214 213 209 209 208 207 206 204 202 199 199 197 194 198 203 203 198 190 170 167 160 156 172 180 166 169 171 184 202 193 181 164 158 158 155 144 122
214 216 219 220 222 214 215 215 216 213 210 210 210 209 207 205 200 194 194 203 210 208 200 193 176 170 166 172 175 177 171 178 166 173 190 190 158 166 159 155 148 136 155
219 218 226 227 235 223 216 219 221 221 219 215 214 213 212 208 201 199 201 206 211 212 206 196 185 180 173 175 178 177 184 185 184 178 205 192 147 150 155 161 176 182 182
230 222 226 228 230 233 227 223 223 221 223 223 218 217 215 211 207 205 208 211 215 216 215 204 192 186 179 179 186 186 188 196 183 184 196 216 200 184 174 181 195 201 207
244 233 227 229 229 233 234 232 225 221 220 223 227 226 221 217 215 212 211 212 216 217 217 209 203 189 184 186 191 203 196 196 196 204 196 209 208 214 212 202 230 234 231
242 242 242 239 238 240 239 236 235 229 224 223 225 229 229 224 221 218 216 214 213 217 222 216 203 190 189 189 196 201 197 201 214 205 205 204 218 221 239 220 230 234 228
240 239 242 249 254 245 240 240 238 235 232 230 227 228 230 229 226 224 221 215 214 216 218 211 197 187 186 183 195 203 190 195 192 201 209 227 223 219 212 220 228 228 197
242 242 242 241 239 238 242 237 241 239 236 234 234 232 230 228 230 227 223 218 213 215 210 204 194 186 185 183 189 204 197 190 195 203 207 211 197 206 209 201 213 195 204
237 233 235 235 233 235 236 239 241 239 238 236 235 233 232 230 229 229 226 222 215 210 206 200 191 191 184 189 196 201 208 205 200 202 206 209 210 216 203 199 200 190 199
222 218 217 222 232 234 232 232 233 235 238 238 234 232 232 232 230 229 228 227 217 211 202 193 190 192 194 191 198 200 206 213 209 213 212 223 222 220 204 206 200 203 208
245 237 225 216 219 227 232 231 232 234 235 239 239 235 230 229 228 228 228 226 223 215 204 200 194 194 193 200 198 194 203 208 212 218 219 224 225 221 213 208 220 221 228
346 303 270 251 232 225 230 227 231 232 241 243 244 241 236 230 227 224 227 226 223 215 206 203 200 195 196 202 192 190 184 194 208 212 218 224 221 222 215 215 216 225 231
358 352 322 293 261 247 244 245 239 238 241 245 242 238 234 229 228 227 227 228 222 218 215 213 210 207 200 198 202 185 168 196 198 205 213 220 225 226 224 221 221 228 229
23 8 345 328 287 268 252 256 256 250 246 244 240 233 229 223 221 224 225 226 224 219 217 216 212 215 208 200 197 201 200 198 187 202 215 221 225 230 241 225 220 225 229
28 28 23 11 329 272 256 254 251 250 250 248 243 229 223 222 220 223 224 224 220 220 225 220 218 218 219 208 199 200 207 209 211 202 208 219 223 227 229 231 222 228 231
21 25 23 23 23 9 322 266 239 240 243 241 239 228 220 219 220 222 223 220 220 221 223 220 225 223 218 222 216 218 213 208 212 215 217 224 226 231 232 230 230 228 234